Wind_Speed
47 48 43 37 36 37 38 40 42 46 50 54 56 56 58 60 63 65 67 70 67 67 61 56 56 44 50 43 44 45 47 47 46 46 46 44 44 38 37 32 30 29 29 26 29 32 31 29 33 37 38 40 43 45
46 43 40 37 39 40 41 44 48 51 55 58 58 58 60 64 67 70 73 67 58 53 49 40 34 41 43 37 43 50 39 42 41 42 41 38 40 41 37 36 31 30 29 30 30 29 35 33 33 34 36 38 39 42
41 39 39 40 41 42 45 49 52 56 59 59 59 61 64 67 70 71 64 51 46 47 45 38 38 35 44 50 48 37 34 39 31 38 39 37 37 37 38 36 34 32 31 35 34 29 30 33 32 33 34 36 37 36
39 39 40 41 43 46 50 53 57 59 59 58 60 63 66 69 69 63 47 46 47 49 46 37 38 37 36 40 34 35 33 36 36 35 39 37 33 35 36 37 34 32 34 32 32 29 32 34 35 33 32 30 31 31
39 41 42 44 46 49 51 56 57 57 57 58 62 65 69 68 61 48 45 45 47 47 48 43 39 34 34 34 34 28 28 31 28 27 27 27 30 31 32 34 27 33 33 33 30 32 33 31 36 36 34 31 30 29
44 45 46 48 49 50 56 57 56 58 58 60 63 66 67 63 54 46 43 46 46 47 45 41 33 28 31 35 44 31 30 25 25 26 29 31 32 33 34 30 22 30 29 31 31 31 32 32 34 39 40 38 36 33
47 48 49 51 54 57 55 55 56 59 59 63 65 65 63 54 48 45 43 42 43 41 42 40 29 22 24 26 35 44 47 43 42 35 29 34 30 32 34 26 19 31 36 32 29 26 27 32 33 35 38 40 40 39
52 53 55 56 55 54 55 56 57 61 60 64 64 64 55 48 45 43 42 41 39 39 37 33 23 20 22 22 19 23 35 40 33 30 33 31 32 31 29 23 25 30 32 34 37 39 39 38 37 37 37 37 37 35
55 55 55 54 54 54 55 56 58 60 63 64 62 58 47 46 43 41 39 38 37 35 33 27 22 22 21 22 22 20 27 27 27 25 27 27 30 33 28 28 29 26 25 24 23 26 31 36 40 44 46 45 44 43
56 56 55 55 54 55 57 58 60 60 63 62 59 50 44 43 41 39 37 37 36 33 29 27 27 27 25 24 25 31 36 38 36 35 35 31 29 28 25 27 30 27 25 23 23 24 23 24 24 24 30 35 41 43
56 56 55 56 57 58 59 58 60 60 60 58 52 47 45 44 39 37 34 33 33 31 30 29 29 28 27 26 27 30 32 32 35 33 34 32 30 30 31 28 28 28 29 29 27 28 29 26 24 24 24 29 34 37
57 57 57 57 57 57 57 58 59 59 56 52 48 43 43 42 36 33 31 30 29 27 26 25 26 25 24 23 23 25 28 31 33 37 37 36 31 27 28 28 31 35 35 34 33 32 31 30 30 31 30 31 33 35
58 59 58 57 56 55 55 57 58 55 52 48 44 43 39 37 30 29 29 28 26 24 23 20 19 19 19 21 20 21 25 29 30 32 33 33 34 38 39 39 38 36 30 32 32 33 33 34 35 37 39 38 37 36
56 57 57 53 52 55 56 56 54 52 48 44 41 36 34 30 26 27 28 25 22 20 19 20 20 19 18 17 19 20 22 23 24 23 23 26 27 28 29 32 35 34 35 34 33 32 32 34 36 37 42 41 39 38
54 54 54 54 55 57 55 51 50 47 43 39 37 32 29 21 20 25 26 21 19 19 20 21 20 19 17 17 16 17 20 23 22 22 21 21 24 26 28 31 34 36 36 36 38 38 39 40 41 42 43 44 43 39
55 56 56 56 57 54 51 48 44 42 37 33 30 27 19 16 21 26 30 22 19 19 19 18 18 18 18 18 17 18 19 19 21 21 21 22 23 25 26 28 31 32 32 34 37 38 39 39 39 40 40 38 36 34
59 61 58 55 53 51 47 43 39 36 34 29 24 19 16 19 21 27 31 24 21 21 19 18 19 20 23 24 22 20 20 22 23 26 27 28 29 29 30 31 31 29 30 29 31 32 31 35 38 37 35 36 35 34
57 56 55 53 49 47 44 39 38 36 31 26 23 25 24 18 28 29 25 25 24 22 22 22 24 24 26 25 25 24 24 24 23 24 25 25 26 27 27 26 28 27 27 31 30 33 35 32 34 32 32 30 30 32
57 54 51 50 46 44 41 36 34 32 28 24 24 26 24 23 28 25 23 23 24 25 27 27 28 26 25 25 24 23 23 23 23 24 24 26 29 32 34 33 33 33 32 31 29 29 29 32 38 37 37 35 33 31
55 53 49 47 46 43 40 35 32 29 26 24 24 17 16 19 18 19 20 23 26 30 30 29 30 28 26 23 20 20 21 22 24 25 26 28 29 30 31 32 34 37 37 38 39 37 33 32 35 38 38 40 39 35
52 51 50 48 45 42 39 36 32 30 27 24 25 29 25 24 26 28 29 29 28 29 30 30 27 25 22 20 19 20 21 22 21 22 22 23 24 27 28 30 32 33 29 25 26 32 36 37 37 37 40 41 42 42
51 51 49 45 42 40 36 33 32 30 28 25 24 26 30 33 33 33 31 30 31 30 30 27 26 25 25 25 26 26 27 27 27 27 27 29 29 29 29 29 30 32 34 33 31 30 30 31 35 38 43 45 46 47
52 48 43 38 34 32 28 27 27 26 26 25 24 25 26 27 28 29 29 29 28 26 26 27 28 29 30 31 32 34 35 36 35 35 34 33 33 33 32 31 30 31 33 34 36 37 36 37 40 42 44 46 50 51
40 34 32 29 26 25 24 22 21 22 22 22 23 23 24 25 26 25 26 26 28 29 30 31 33 35 37 39 40 40 41 40 39 39 39 39 38 38 38 38 38 37 37 37 38 39 42 42 43 44 45 47 50 51
29 26 25 24 24 23 21 21 21 21 22 23 23 23 24 27 28 30 30 31 33 35 37 39 41 43 44 45 45 44 43 42 42 42 41 41 40 40 40 40 40 41 41 42 43 44 45 46 47 48 48 50 50 51
24 25 24 24 23 22 22 22 21 21 22 25 28 30 31 33 35 38 39 39 38 39 39 41 42 42 42 42 42 42 42 43 43 44 45 45 45 46 46 46 46 47 48 49 50 51 52 53 54 55 56 56 57 58
26 25 23 23 23 22 22 21 21 22 23 25 27 30 33 35 37 37 38 39 39 39 39 40 40 41 41 42 42 42 43 43 43 44 44 45 46 47 48 49 50 51 52 53 54 55 56 58 60 61 62 63 63 64
22 23 23 23 23 23 23 23 23 23 23 25 25 27 29 30 32 33 34 35 35 36 36 37 38 38 39 39 39 40 41 41 41 43 43 44 45 47 48 49 51 52 53 54 56 57 59 60 62 64 65 64 66 67
23 24 25 25 25 25 25 25 25 25 26 26 27 27 28 29 29 30 30 31 31 32 33 33 34 35 36 37 37 37 40 42 44 45 47 48 49 50 51 52 53 54 55 56 58 60 61 63 65 66 67 67 68 69
26 28 28 28 28 28 28 28 28 28 29 28 29 29 29 29 29 29 29 29 30 30 31 32 34 35 36 38 40 39 38 41 43 44 46 47 48 50 50 51 52 53 54 55 57 59 61 62 63 63 64 65 65 66
30 29 29 28 30 31 31 31 31 31 30 30 31 31 31 31 31 31 31 32 32 33 34 35 36 36 38 39 40 42 43 44 44 44 44 45 47 49 50 51 51 50 51 53 54 55 56 57 59 60 61 62 63 65
31 29 30 31 32 33 33 33 32 32 32 32 32 32 31 31 31 31 31 32 33 33 35 37 38 39 39 40 40 40 41 42 42 42 42 44 45 47 47 47 46 46 46 48 49 51 52 53 55 57 59 60 62 63
32 33 34 35 36 35 35 33 32 32 32 31 31 30 30 30 31 31 31 32 34 35 37 39 41 40 40 41 40 40 40 41 41 41 42 42 41 42 42 42 42 42 43 45 46 48 50 52 53 55 56 57 58 60
Wind_Direction
301 305 303 299 297 297 299 300 302 305 307 308 308 309 310 309 309 309 309 306 302 299 297 289 284 285 277 290 282 273 267 264 264 264 266 268 266 263 261 261 258 259 259 262 264 266 263 252 250 251 249 246 247 248
305 303 299 297 297 298 300 301 305 307 309 309 309 310 310 310 310 311 312 310 303 297 301 298 298 269 274 262 268 274 269 268 267 266 265 266 266 262 260 261 263 263 261 258 259 264 264 256 252 251 250 249 248 251
300 298 296 296 297 300 301 303 306 309 310 310 310 311 312 312 313 314 312 306 301 296 298 305 299 287 266 271 271 263 272 271 268 270 266 265 266 268 266 262 263 261 259 260 261 265 259 255 251 250 248 250 250 250
298 296 297 299 300 300 302 305 307 310 310 311 312 312 313 314 314 313 307 301 302 298 299 307 299 288 279 255 270 265 268 273 266 267 265 263 266 271 272 269 268 268 261 263 259 261 253 255 256 254 254 254 253 250
301 300 299 298 299 300 302 304 307 309 310 312 312 313 315 314 313 309 304 304 304 302 300 304 301 289 280 262 259 257 264 270 263 265 268 269 269 272 271 270 272 267 263 262 258 256 257 255 258 260 260 254 251 250
301 299 299 299 298 300 303 304 305 308 310 312 312 314 314 312 313 306 304 304 306 307 306 306 301 286 283 267 245 241 233 239 250 261 264 266 267 272 269 264 273 271 265 259 254 256 254 255 255 257 258 258 255 254
301 300 300 299 299 301 302 304 304 307 309 312 313 315 313 313 313 310 310 305 305 308 307 309 302 288 292 279 255 245 255 260 262 265 272 265 269 277 279 283 259 259 262 264 258 256 258 257 255 255 259 262 261 258
302 301 301 301 301 301 301 302 303 306 309 313 315 314 314 313 313 312 312 308 304 300 302 305 298 286 288 287 276 255 246 248 261 259 265 259 258 270 276 277 264 265 266 266 265 265 264 264 266 262 258 257 258 262
303 303 302 301 300 300 301 302 302 306 310 313 314 314 314 314 311 310 312 311 308 301 296 295 286 275 268 272 259 242 230 236 246 247 256 253 257 263 268 264 262 264 267 268 270 268 268 268 268 269 268 266 266 267
304 302 301 301 301 301 302 303 305 308 311 313 313 311 311 310 309 309 308 307 303 299 292 283 275 270 268 264 259 252 246 249 255 259 265 257 253 259 257 253 254 260 262 262 273 270 271 271 268 263 263 263 265 267
302 302 302 301 302 303 304 306 308 311 312 312 311 310 308 307 308 305 304 301 301 299 297 291 288 284 280 278 274 269 265 261 257 258 255 253 256 258 258 259 257 259 263 267 268 269 272 269 273 276 275 271 267 262
300 300 301 301 303 305 308 310 312 313 312 311 309 308 305 305 304 299 295 293 295 299 298 298 298 297 294 288 282 273 261 251 246 249 253 255 249 248 251 258 260 254 253 255 256 256 256 260 266 270 271 269 270 276
309 307 306 305 307 310 313 313 313 311 309 308 309 306 307 303 294 288 286 288 293 298 301 304 302 302 300 289 279 270 263 260 262 262 264 266 264 260 261 267 270 265 262 258 260 259 258 260 263 264 264 265 266 270
312 313 311 311 314 313 312 312 312 310 309 308 307 306 298 297 283 279 286 293 300 304 302 298 297 300 297 295 289 276 266 266 265 266 266 266 265 259 247 243 247 252 253 253 257 262 263 262 259 259 261 262 262 266
314 316 317 316 315 312 311 313 312 309 307 308 307 305 306 286 276 283 295 306 305 303 302 300 298 297 293 289 286 283 276 274 273 274 275 266 255 249 249 250 250 248 250 251 252 252 252 254 257 261 262 263 266 269
316 316 315 314 313 312 312 312 309 307 308 306 303 299 289 284 280 287 295 306 298 299 300 301 303 304 303 294 289 277 273 273 272 269 261 255 258 261 263 262 262 263 265 265 265 263 262 262 263 266 267 266 267 268
315 315 316 314 314 314 312 309 309 307 306 304 294 279 270 262 282 292 295 298 296 296 299 304 303 299 299 298 294 281 272 270 268 265 263 263 263 265 268 270 270 270 264 266 260 261 269 269 269 264 264 267 268 265
314 315 314 314 313 311 310 309 306 305 305 301 282 276 259 275 288 289 289 289 292 296 302 304 305 304 297 291 288 284 275 268 265 265 265 263 263 264 266 270 268 269 272 270 267 260 263 268 265 255 257 262 267 268
316 315 314 313 311 310 309 308 305 303 299 292 285 276 263 275 278 280 279 282 287 293 298 302 303 302 289 285 281 279 278 277 274 270 267 264 264 264 265 265 264 263 265 265 263 264 262 260 258 253 253 259 261 266
314 313 312 311 311 308 306 305 303 302 297 283 269 261 277 279 280 281 283 283 285 288 291 295 299 292 287 284 283 284 283 279 276 275 275 274 270 268 266 266 263 263 265 266 260 257 258 261 259 258 255 258 263 265
312 312 310 309 307 303 302 301 298 295 290 276 266 252 248 255 272 278 281 282 285 287 288 291 288 283 281 283 288 290 287 284 282 280 279 281 281 279 278 276 267 259 257 266 268 261 261 261 262 262 261 261 262 265
312 310 308 306 304 301 299 296 289 286 282 279 270 263 260 262 269 276 279 279 280 281 282 279 278 280 284 288 291 293 293 291 289 285 282 280 279 279 277 275 274 268 258 257 261 265 268 265 264 265 264 262 262 264
311 310 309 309 308 304 302 291 282 278 276 275 272 270 271 273 274 275 278 279 278 273 270 274 280 284 287 290 292 292 292 290 288 285 283 282 281 278 275 273 272 269 267 265 263 260 259 264 267 266 265 265 265 267
314 315 316 317 314 313 310 300 286 277 273 271 271 272 272 274 276 277 279 281 280 280 281 282 283 286 288 290 291 291 291 290 289 287 284 282 282 281 279 277 274 271 268 265 264 262 263 265 266 266 265 264 264 264
320 325 324 322 320 317 315 309 295 280 273 273 272 274 273 273 275 278 281 282 283 282 281 281 282 283 285 286 286 285 285 284 284 284 283 283 282 281 280 279 277 276 274 272 271 270 270 270 271 270 269 269 268 268
326 328 327 327 325 322 319 316 311 302 291 282 275 274 274 275 278 282 285 286 286 285 285 284 285 285 285 285 284 284 283 282 281 281 281 281 280 280 280 279 278 277 277 276 276 275 275 274 273 273 272 272 272 271
322 324 326 327 329 329 327 324 318 311 304 296 289 285 284 285 286 288 288 288 288 288 287 287 286 286 285 285 285 285 284 284 283 282 281 280 280 279 279 278 277 277 276 276 276 276 276 276 275 275 274 274 274 273
326 327 329 329 327 326 324 321 318 315 312 308 304 300 297 295 295 294 294 294 293 293 293 293 292 292 291 290 290 289 288 287 286 285 284 283 283 282 281 280 279 279 279 279 278 277 276 275 274 274 274 274 273 273
327 327 327 324 322 321 319 316 314 311 308 307 305 305 306 306 306 305 304 303 302 301 300 300 299 298 296 295 294 294 293 292 292 291 289 287 286 284 283 283 283 282 281 281 281 280 279 278 277 277 277 277 276 276
326 326 324 322 320 318 315 312 309 306 306 306 307 308 309 311 311 310 308 306 305 304 303 302 301 301 300 299 299 299 298 299 299 296 293 291 289 288 288 287 286 286 286 285 284 284 284 283 282 281 280 279 277 275
325 323 322 322 321 318 314 312 309 309 309 309 309 310 310 310 309 309 307 307 306 306 305 305 305 306 306 304 302 301 301 302 302 301 299 297 296 294 293 293 293 293 291 289 288 288 287 286 285 284 283 282 281 280
322 319 318 318 317 316 316 315 315 313 312 312 311 311 311 310 308 308 307 307 306 307 307 308 308 307 307 307 306 304 303 302 302 302 301 299 299 299 299 298 298 298 296 295 293 292 291 289 288 287 286 285 284 283
318 316 314 312 314 315 316 317 316 315 314 314 313 313 312 311 311 311 310 310 309 309 310 310 310 311 310 309 309 308 308 308 308 306 305 307 306 304 303 303 301 300 299 297 296 295 294 293 292 290 289 288 287 285
Height
5648 5643 5638 5635 5631 5628 5624 5620 5616 5611 5606 5601 5594 5587 5579 5571 5563 5555 5547 5535 5520 5510 5510 5504 5501 5496 5498 5496 5495 5496 5496 5500 5501 5502 5502 5504 5504 5507 5509 5510 5511 5512 5512 5514 5514 5513 5516 5519 5519 5522 5526 5527 5528 5530
5637 5633 5629 5625 5622 5619 5615 5610 5605 5599 5593 5587 5579 5572 5564 5554 5545 5534 5524 5512 5501 5492 5490 5489 5487 5485 5484 5484 5483 5481 5484 5484 5486 5488 5490 5489 5491 5494 5496 5499 5500 5502 5503 5504 5506 5507 5504 5508 5510 5511 5513 5516 5518 5519
5628 5624 5620 5617 5613 5609 5604 5599 5594 5587 5581 5573 5565 5557 5547 5537 5526 5515 5504 5493 5485 5479 5478 5478 5477 5472 5470 5470 5467 5467 5472 5472 5475 5475 5477 5478 5478 5481 5483 5487 5489 5491 5491 5492 5494 5497 5496 5496 5499 5500 5502 5505 5507 5509
5618 5615 5611 5607 5602 5598 5593 5587 5580 5574 5566 5559 5550 5540 5530 5519 5507 5496 5489 5481 5474 5466 5464 5468 5462 5458 5456 5455 5456 5458 5461 5462 5462 5464 5465 5467 5469 5470 5473 5474 5480 5480 5479 5480 5484 5485 5484 5487 5487 5489 5492 5495 5497 5498
5608 5604 5600 5596 5590 5585 5579 5573 5567 5559 5552 5544 5534 5523 5512 5501 5491 5482 5475 5469 5462 5455 5452 5453 5449 5446 5444 5443 5445 5447 5451 5453 5454 5454 5455 5458 5459 5460 5461 5464 5470 5466 5467 5469 5474 5472 5475 5478 5476 5477 5480 5484 5486 5488
5598 5594 5589 5583 5577 5572 5565 5558 5552 5545 5537 5529 5519 5507 5496 5486 5477 5468 5463 5456 5450 5442 5439 5439 5437 5434 5432 5431 5432 5437 5437 5438 5442 5445 5446 5448 5451 5450 5450 5457 5459 5455 5455 5458 5462 5462 5465 5466 5467 5468 5470 5473 5476 5479
5586 5581 5575 5569 5563 5557 5550 5544 5538 5530 5523 5514 5504 5493 5481 5471 5464 5456 5450 5445 5437 5433 5427 5425 5424 5424 5422 5420 5422 5425 5426 5429 5431 5434 5436 5439 5441 5440 5442 5448 5446 5445 5445 5449 5451 5454 5455 5455 5458 5460 5460 5462 5464 5467
5574 5568 5561 5554 5548 5542 5535 5529 5522 5515 5508 5499 5489 5478 5469 5459 5451 5445 5437 5432 5426 5421 5417 5415 5415 5414 5413 5410 5410 5412 5415 5420 5422 5424 5428 5429 5430 5431 5435 5438 5434 5436 5436 5438 5441 5443 5445 5446 5447 5449 5451 5451 5453 5455
5560 5554 5547 5540 5533 5527 5521 5515 5508 5500 5492 5483 5474 5464 5457 5448 5441 5435 5428 5422 5417 5414 5409 5407 5406 5405 5405 5404 5403 5406 5407 5410 5412 5414 5418 5418 5420 5422 5426 5426 5425 5427 5428 5429 5429 5430 5431 5433 5435 5436 5438 5440 5441 5442
5546 5539 5532 5526 5519 5513 5506 5499 5492 5485 5476 5466 5458 5450 5445 5438 5430 5424 5418 5413 5408 5405 5402 5399 5397 5396 5397 5396 5396 5397 5398 5400 5401 5406 5407 5409 5412 5413 5414 5415 5416 5417 5419 5420 5422 5422 5422 5423 5423 5424 5425 5426 5427 5428
5531 5524 5518 5511 5504 5497 5490 5482 5475 5469 5460 5451 5444 5437 5431 5425 5420 5414 5409 5405 5401 5398 5395 5393 5392 5391 5390 5391 5390 5389 5388 5389 5390 5396 5397 5400 5403 5405 5404 5405 5406 5408 5409 5411 5412 5413 5414 5414 5414 5415 5415 5415 5416 5416
5515 5508 5502 5496 5489 5481 5475 5467 5460 5454 5446 5438 5431 5424 5419 5413 5409 5405 5400 5397 5395 5393 5390 5388 5386 5385 5384 5382 5381 5380 5380 5379 5380 5384 5386 5388 5393 5393 5394 5395 5396 5398 5399 5400 5401 5402 5403 5404 5405 5405 5405 5405 5405 5404
5500 5494 5487 5482 5476 5467 5461 5453 5447 5439 5431 5424 5418 5412 5407 5403 5399 5395 5392 5390 5388 5386 5384 5383 5381 5379 5377 5375 5373 5373 5372 5372 5373 5374 5376 5380 5381 5383 5383 5384 5385 5387 5387 5389 5390 5392 5393 5393 5393 5394 5394 5393 5394 5393
5487 5480 5473 5468 5461 5454 5447 5440 5433 5425 5418 5411 5406 5402 5397 5394 5391 5388 5384 5383 5382 5380 5378 5376 5375 5374 5371 5370 5369 5368 5367 5367 5366 5368 5369 5370 5370 5370 5371 5372 5374 5375 5376 5377 5379 5380 5381 5381 5381 5381 5382 5382 5382 5382
5475 5467 5460 5455 5448 5441 5434 5426 5419 5413 5406 5400 5395 5392 5389 5386 5384 5380 5378 5378 5377 5375 5373 5371 5369 5368 5366 5365 5364 5363 5362 5361 5362 5362 5362 5362 5361 5361 5361 5362 5363 5364 5365 5366 5367 5368 5368 5369 5370 5370 5371 5371 5372 5372
5462 5455 5446 5439 5434 5427 5419 5412 5406 5401 5395 5391 5386 5384 5382 5380 5377 5373 5371 5372 5371 5370 5368 5366 5364 5362 5361 5359 5359 5357 5357 5356 5356 5355 5354 5353 5353 5354 5354 5354 5355 5355 5356 5357 5358 5359 5359 5360 5360 5360 5360 5361 5361 5362
5447 5440 5434 5425 5418 5412 5407 5400 5394 5390 5385 5382 5380 5377 5376 5373 5370 5368 5365 5365 5365 5364 5363 5361 5359 5357 5355 5353 5352 5351 5350 5349 5348 5347 5347 5347 5347 5347 5347 5346 5346 5347 5347 5348 5348 5349 5349 5349 5350 5350 5350 5350 5351 5352
5433 5426 5418 5411 5405 5399 5394 5389 5383 5379 5376 5373 5372 5370 5368 5367 5364 5362 5360 5359 5359 5358 5356 5355 5354 5352 5348 5346 5344 5343 5341 5340 5339 5339 5338 5338 5337 5337 5337 5336 5337 5337 5337 5338 5338 5338 5339 5339 5340 5340 5340 5340 5341 5342
5419 5412 5405 5398 5392 5386 5381 5379 5373 5369 5367 5365 5364 5363 5362 5360 5358 5357 5355 5354 5353 5351 5350 5349 5346 5344 5341 5339 5336 5335 5333 5332 5331 5331 5330 5329 5328 5327 5326 5326 5326 5326 5326 5326 5327 5327 5327 5328 5329 5329 5329 5330 5331 5331
5403 5397 5392 5385 5379 5374 5369 5368 5364 5360 5359 5358 5357 5356 5356 5355 5354 5352 5351 5349 5347 5345 5343 5341 5339 5336 5333 5331 5329 5327 5325 5324 5323 5322 5321 5319 5318 5317 5316 5315 5314 5314 5314 5314 5314 5315 5316 5317 5317 5318 5318 5318 5319 5319
5391 5384 5378 5372 5367 5362 5358 5355 5352 5351 5349 5348 5348 5347 5346 5345 5345 5344 5343 5341 5339 5337 5335 5333 5331 5329 5327 5324 5322 5320 5318 5317 5315 5313 5312 5310 5309 5307 5305 5304 5303 5303 5303 5303 5302 5302 5303 5304 5305 5305 5305 5306 5306 5306
5378 5370 5364 5357 5353 5349 5347 5344 5340 5339 5338 5337 5337 5337 5336 5336 5335 5334 5332 5331 5329 5328 5326 5324 5322 5320 5318 5316 5314 5312 5310 5308 5306 5304 5303 5301 5299 5297 5295 5294 5292 5292 5291 5291 5291 5291 5291 5291 5291 5291 5291 5291 5291 5292
5363 5356 5350 5345 5341 5337 5336 5332 5330 5329 5328 5327 5327 5327 5326 5325 5325 5323 5322 5321 5319 5318 5316 5315 5313 5311 5308 5306 5304 5301 5299 5297 5295 5293 5291 5290 5288 5286 5284 5283 5281 5280 5279 5278 5278 5278 5278 5278 5277 5277 5276 5276 5276 5276
5350 5345 5340 5336 5333 5329 5326 5324 5322 5321 5320 5319 5319 5318 5317 5316 5315 5314 5313 5311 5310 5308 5306 5304 5302 5299 5297 5294 5292 5289 5287 5284 5282 5280 5278 5276 5274 5272 5271 5269 5268 5267 5266 5265 5264 5263 5263 5262 5261 5260 5259 5258 5258 5258
5344 5340 5335 5331 5327 5324 5321 5318 5316 5314 5313 5312 5311 5310 5309 5308 5307 5306 5304 5303 5300 5298 5295 5293 5290 5287 5284 5281 5278 5275 5273 5270 5268 5265 5263 5261 5259 5257 5255 5254 5252 5251 5250 5249 5248 5247 5246 5244 5243 5242 5241 5241 5240 5239
5339 5335 5332 5327 5323 5320 5316 5313 5311 5309 5307 5305 5304 5303 5301 5299 5298 5295 5294 5291 5288 5285 5282 5279 5276 5273 5270 5267 5264 5262 5259 5256 5254 5251 5248 5246 5244 5242 5240 5238 5236 5235 5233 5231 5229 5228 5226 5224 5222 5221 5220 5220 5218 5217
5335 5331 5327 5323 5320 5316 5313 5310 5306 5304 5301 5299 5297 5294 5292 5289 5287 5284 5281 5278 5275 5272 5268 5265 5262 5259 5255 5252 5250 5247 5244 5241 5238 5236 5233 5231 5228 5226 5223 5221 5219 5218 5215 5213 5211 5208 5206 5203 5201 5199 5198 5197 5195 5193
5331 5327 5324 5321 5317 5313 5309 5305 5302 5299 5295 5292 5289 5286 5283 5279 5277 5273 5270 5266 5263 5260 5257 5253 5250 5246 5243 5240 5237 5233 5230 5227 5224 5220 5217 5215 5211 5209 5206 5203 5201 5198 5196 5194 5191 5187 5184 5181 5178 5175 5173 5173 5170 5167
5327 5323 5320 5316 5312 5308 5304 5300 5296 5292 5289 5285 5281 5278 5274 5270 5267 5263 5260 5256 5253 5249 5246 5242 5238 5234 5230 5226 5224 5221 5216 5212 5208 5204 5201 5197 5194 5192 5188 5185 5182 5179 5176 5172 5167 5163 5160 5156 5153 5150 5148 5146 5143 5140
5322 5318 5314 5310 5306 5301 5298 5294 5289 5285 5281 5278 5274 5270 5267 5263 5259 5255 5251 5248 5244 5240 5236 5232 5228 5224 5220 5215 5210 5206 5204 5199 5194 5190 5185 5180 5176 5172 5168 5164 5161 5157 5153 5149 5144 5139 5134 5131 5128 5124 5120 5117 5113 5111
5316 5311 5307 5303 5298 5294 5290 5285 5281 5277 5273 5269 5266 5262 5258 5254 5250 5246 5242 5238 5234 5230 5225 5221 5217 5213 5208 5203 5198 5193 5188 5184 5178 5173 5169 5164 5159 5154 5150 5146 5142 5138 5132 5126 5121 5117 5112 5108 5103 5098 5093 5089 5085 5081
5308 5304 5300 5295 5291 5286 5282 5277 5273 5269 5264 5260 5257 5253 5249 5245 5241 5237 5233 5229 5224 5220 5215 5210 5206 5201 5196 5191 5186 5181 5175 5169 5164 5159 5154 5148 5143 5138 5133 5129 5124 5119 5113 5107 5102 5096 5091 5086 5080 5074 5069 5064 5059 5054
5300 5296 5291 5287 5282 5278 5273 5269 5265 5260 5256 5252 5248 5244 5240 5236 5232 5228 5224 5219 5214 5210 5205 5199 5194 5190 5185 5179 5173 5168 5162 5156 5151 5145 5139 5134 5129 5123 5117 5113 5108 5104 5098 5091 5085 5079 5072 5066 5059 5052 5046 5040 5034 5028